Butler, GA

7:56 PM EST on December 07, 2019 (GMT -0500)
Butler

Weather History for K6A1 - October, 2019

Change the Weather History Date:

Wednesday, October 2, 2019

  Actual Average (KMCN) Record (KMCN)
Temperature  
Mean Temperature 82 °F -  
Max Temperature 95 °F 82 °F 98 °F (2019)
Min Temperature 69 °F 56 °F 39 °F (1984)
Cooling Degree Days 17    
Growing Degree Days 32 (Base 50)    
Moisture  
Dew Point 64 °F    
Average Humidity 57    
Maximum Humidity 91    
Minimum Humidity 33    
Precipitation  
Precipitation 0.00 in - - ()
Sea Level Pressure  
Sea Level Pressure 30.04 in    
Wind  
Wind Speed 3 mph ()    
Max Wind Speed 9 mph    
Max Gust Speed -    
Visibility 10.0 miles    
Events      
Averages and records for this station are not official NWS values.
T = Trace of Precipitation, MM = Missing Value Source: Averaged Metar Reports

Daily Weather History Graph

Daily Weather History Graph

Search for Another Location

Airport or City:

Astronomy

Oct. 02, 2019 Rise Set
Actual Time 7:31 AM EDT 7:20 PM EDT
Civil Twilight 7:07 AM EDT 7:45 PM EDT
Nautical Twilight 6:38 AM EDT 8:13 PM EDT
Astronomical Twilight 6:09 AM EDT 8:42 PM EDT
Moon 11:42 AM EDT (10/2) 10:28 PM EDT (10/2)
Length of Visible Light 12h 38m
Length of Day
11h 49m
Waxing Crescent, 20% of the Moon is Illuminated
Oct 2
Waxing Crescent
Oct 5
First Quarter
Oct 13
Full
Oct 21
Last Quarter
Oct 27
New

Hourly Weather History & Observations

Time (EDT) Temp. Heat Index Dew Point Humidity Pressure Visibility Wind Dir Wind Speed Gust Speed Precip Events Conditions
12:15 AM 79.7 °F - 65.3 °F 61% 30.06 in 10.0 mi SSE 4.6 mph - N/A   Unknown
12:35 AM 79.7 °F - 65.5 °F 62% 30.06 in 10.0 mi SSE 8.1 mph - N/A   Unknown
12:55 AM 79.0 °F - 65.5 °F 63% 30.06 in 10.0 mi South 8.1 mph - N/A   Unknown
1:15 AM 78.3 °F - 65.5 °F 65% 30.06 in 10.0 mi South 5.8 mph - N/A   Unknown
1:35 AM 78.1 °F - 64.4 °F 63% 30.06 in 10.0 mi South 9.2 mph - N/A   Unknown
1:55 AM 77.7 °F - 63.9 °F 62% 30.06 in 10.0 mi South 6.9 mph - N/A   Unknown
2:10 AM 77.2 °F - 63.7 °F 63% 30.05 in 10.0 mi South 5.8 mph - N/A   Unknown
2:35 AM 76.3 °F - 64.0 °F 66% 30.06 in 10.0 mi SSW 3.5 mph - N/A   Unknown
2:55 AM 75.9 °F - 64.4 °F 67% 30.05 in 10.0 mi SSW 3.5 mph - N/A   Unknown
3:15 AM 74.5 °F - 64.8 °F 72% 30.05 in 10.0 mi Calm Calm - N/A   Unknown
3:55 AM 72.1 °F - 65.1 °F 78% 30.05 in 10.0 mi Calm Calm - N/A   Unknown
4:15 AM 71.6 °F - 65.5 °F 81% 30.05 in 10.0 mi Calm Calm - N/A   Unknown
4:35 AM 71.8 °F - 65.8 °F 81% 30.05 in 10.0 mi Calm Calm - N/A   Unknown
4:55 AM 70.7 °F - 65.7 °F 84% 30.05 in 10.0 mi Calm Calm - N/A   Unknown
5:15 AM 71.6 °F - 66.2 °F 83% 30.05 in 10.0 mi WSW 3.5 mph - N/A   Unknown
5:35 AM 71.8 °F - 66.4 °F 83% 30.05 in 10.0 mi Calm Calm - N/A   Unknown
5:55 AM 71.6 °F - 66.4 °F 84% 30.06 in 10.0 mi Calm Calm - N/A   Unknown
6:15 AM 71.1 °F - 66.4 °F 85% 30.06 in 10.0 mi Calm Calm - N/A   Unknown
6:35 AM 70.3 °F - 66.7 °F 88% 30.07 in 10.0 mi Calm Calm - N/A   Unknown
6:55 AM 70.3 °F - 66.6 °F 88% 30.07 in 10.0 mi Calm Calm - N/A   Unknown
7:15 AM 69.4 °F - 66.2 °F 89% 30.08 in 10.0 mi Calm Calm - N/A   Unknown
7:35 AM 69.6 °F - 66.7 °F 91% 30.08 in 10.0 mi Calm Calm - N/A   Unknown
7:55 AM 70.0 °F - 67.1 °F 91% 30.09 in 10.0 mi Calm Calm - N/A   Unknown
8:15 AM 71.1 °F - 67.1 °F 87% 30.09 in 10.0 mi Calm Calm - N/A   Unknown
8:35 AM 73.6 °F - 68.0 °F 83% 30.10 in 10.0 mi Calm Calm - N/A   Unknown
8:55 AM 75.7 °F - 68.0 °F 77% 30.10 in 10.0 mi Calm Calm - N/A   Unknown
9:15 AM 77.9 °F - 68.2 °F 72% 30.10 in 10.0 mi NNW 5.8 mph - N/A   Unknown
9:35 AM 79.0 °F - 68.2 °F 69% 30.10 in 10.0 mi NW 3.5 mph - N/A   Unknown
9:55 AM 79.7 °F - 68.0 °F 67% 30.10 in 10.0 mi NW 3.5 mph - N/A   Unknown
10:15 AM 81.5 °F 83.9 °F 66.9 °F 61% 30.10 in 10.0 mi NW 3.5 mph - N/A   Unknown
10:35 AM 82.0 °F 83.9 °F 65.3 °F 57% 30.10 in 10.0 mi Calm Calm - N/A   Unknown
10:55 AM 83.8 °F 85.3 °F 64.4 °F 52% 30.10 in 10.0 mi Calm Calm - N/A   Unknown
11:15 AM 85.3 °F 86.8 °F 64.8 °F 50% 30.10 in 10.0 mi WSW 3.5 mph - N/A   Unknown
11:35 AM 85.6 °F 87.1 °F 64.6 °F 49% 30.10 in 10.0 mi North 5.8 mph - N/A   Unknown
11:55 AM 87.4 °F 89.1 °F 64.8 °F 47% 30.09 in 10.0 mi NNE 3.5 mph - N/A   Unknown
12:15 PM 88.3 °F 89.9 °F 64.8 °F 45% 30.09 in 10.0 mi ENE 3.5 mph - N/A   Unknown
12:35 PM 88.0 °F 89.6 °F 64.8 °F 46% 30.08 in 10.0 mi Calm Calm - N/A   Unknown
12:55 PM 91.9 °F 94.1 °F 65.1 °F 41% 30.07 in 10.0 mi ENE 5.8 mph - N/A   Unknown
1:15 PM 89.8 °F 91.4 °F 64.4 °F 43% 30.06 in 10.0 mi NE 6.9 mph - N/A   Unknown
1:35 PM 88.7 °F 90.4 °F 64.6 °F 45% 30.05 in 10.0 mi Calm Calm - N/A   Unknown
1:55 PM 91.9 °F 93.7 °F 64.4 °F 40% 30.04 in 10.0 mi North 3.5 mph - N/A   Unknown
2:15 PM 93.6 °F 95.0 °F 63.5 °F 37% 30.03 in 10.0 mi SE 3.5 mph - N/A   Unknown
2:35 PM 93.9 °F 95.2 °F 63.0 °F 36% 30.01 in 10.0 mi NE 6.9 mph - N/A   Unknown
2:55 PM 94.1 °F 95.0 °F 62.4 °F 35% 30.00 in 10.0 mi ENE 3.5 mph - N/A   Unknown
3:15 PM 95.4 °F 96.6 °F 62.6 °F 34% 30.00 in 10.0 mi NE 9.2 mph - N/A   Unknown
3:35 PM 95.5 °F 96.5 °F 62.4 °F 33% 29.99 in 10.0 mi Calm Calm - N/A   Unknown
3:55 PM 93.4 °F 94.3 °F 62.6 °F 36% 29.99 in 10.0 mi NNE 8.1 mph - N/A   Unknown
4:15 PM 93.6 °F 94.2 °F 61.9 °F 35% 29.98 in 10.0 mi Calm Calm - N/A   Unknown
4:35 PM 94.1 °F 94.2 °F 61.2 °F 33% 29.98 in 10.0 mi North 3.5 mph - N/A   Unknown
4:55 PM 94.5 °F 95.2 °F 61.7 °F 34% 29.97 in 10.0 mi East 5.8 mph - N/A   Unknown
5:15 PM 94.6 °F 95.1 °F 61.2 °F 33% 29.97 in 10.0 mi ESE 5.8 mph - N/A   Unknown
5:35 PM 92.8 °F 93.1 °F 61.2 °F 35% 29.97 in 10.0 mi Calm Calm - N/A   Unknown
5:55 PM 92.8 °F 93.1 °F 61.7 °F 35% 29.97 in 10.0 mi South 4.6 mph - N/A   Unknown
6:15 PM 92.8 °F 93.1 °F 61.7 °F 35% 29.97 in 10.0 mi South 4.6 mph - N/A   Unknown
6:35 PM 92.5 °F 93.0 °F 61.7 °F 36% 29.97 in 10.0 mi SE 4.6 mph - N/A   Unknown
6:55 PM 91.6 °F 92.0 °F 62.1 °F 37% 29.97 in 10.0 mi Calm Calm - N/A   Unknown
7:15 PM 89.8 °F 90.4 °F 62.2 °F 40% 29.97 in 10.0 mi Calm Calm - N/A   Unknown
7:55 PM 87.1 °F 87.8 °F 62.6 °F 44% 29.98 in 10.0 mi SSW 3.5 mph - N/A   Unknown
8:15 PM 86.5 °F 87.3 °F 63.0 °F 45% 29.99 in 10.0 mi South 4.6 mph - N/A   Unknown
8:35 PM 86.0 °F 86.8 °F 63.1 °F 46% 29.99 in 10.0 mi South 4.6 mph - N/A   Unknown
8:55 PM 84.7 °F 85.9 °F 63.5 °F 49% 29.99 in 10.0 mi SSW 3.5 mph - N/A   Unknown
9:15 PM 84.4 °F 85.4 °F 63.5 °F 49% 30.00 in 10.0 mi SSW 4.6 mph - N/A   Unknown
9:35 PM 83.3 °F 84.4 °F 63.5 °F 51% 30.01 in 10.0 mi SSW 3.5 mph - N/A   Unknown
9:55 PM 82.8 °F 84.0 °F 63.5 °F 52% 30.01 in 10.0 mi SSW 4.6 mph - N/A   Unknown
10:15 PM 82.6 °F 83.8 °F 63.5 °F 52% 30.01 in 10.0 mi SSW 4.6 mph - N/A   Unknown
10:35 PM 81.7 °F 83.0 °F 63.7 °F 54% 30.02 in 10.0 mi SSW 3.5 mph - N/A   Unknown
10:55 PM 81.9 °F 83.2 °F 63.9 °F 54% 30.02 in 10.0 mi SSW 4.6 mph - N/A   Unknown
11:15 PM 81.1 °F 82.7 °F 63.9 °F 56% 30.02 in 10.0 mi SW 4.6 mph - N/A   Unknown
11:35 PM 80.2 °F 81.9 °F 64.0 °F 58% 30.02 in 10.0 mi SW 4.6 mph - N/A   Unknown
11:55 PM 80.4 °F 82.1 °F 64.2 °F 58% 30.02 in 10.0 mi SSW 4.6 mph - N/A   Unknown